Index of /20260502/WXO-DD/model_rdps/10km/00/028
Name Last modified Size Description
Parent Directory -
20260502T00Z_MSC_RDPS_AbsoluteVorticity_IsbL-0250_RLatLon0.09_PT028H.grib2 2026-05-02 02:48 611K
20260502T00Z_MSC_RDPS_AbsoluteVorticity_IsbL-0500_RLatLon0.09_PT028H.grib2 2026-05-02 02:48 563K
20260502T00Z_MSC_RDPS_AbsoluteVorticity_IsbL-0700_RLatLon0.09_PT028H.grib2 2026-05-02 02:48 628K
20260502T00Z_MSC_RDPS_AbsoluteVorticity_IsbL-0850_RLatLon0.09_PT028H.grib2 2026-05-02 02:48 779K
20260502T00Z_MSC_RDPS_AirTemp_AGL-120m_RLatLon0.09_PT028H.grib2 2026-05-02 02:48 367K
20260502T00Z_MSC_RDPS_AirTemp_AGL-2m_RLatLon0.09_PT028H.grib2 2026-05-02 02:48 621K
20260502T00Z_MSC_RDPS_AirTemp_AGL-40m_RLatLon0.09_PT028H.grib2 2026-05-02 02:48 383K
20260502T00Z_MSC_RDPS_AirTemp_AGL-80m_RLatLon0.09_PT028H.grib2 2026-05-02 02:48 374K
20260502T00Z_MSC_RDPS_AirTemp_IsbL-0001_RLatLon0.09_PT028H.grib2 2026-05-02 02:48 296K
20260502T00Z_MSC_RDPS_AirTemp_IsbL-0005_RLatLon0.09_PT028H.grib2 2026-05-02 02:48 285K
20260502T00Z_MSC_RDPS_AirTemp_IsbL-0010_RLatLon0.09_PT028H.grib2 2026-05-02 02:48 295K
20260502T00Z_MSC_RDPS_AirTemp_IsbL-0020_RLatLon0.09_PT028H.grib2 2026-05-02 02:48 406K
20260502T00Z_MSC_RDPS_AirTemp_IsbL-0030_RLatLon0.09_PT028H.grib2 2026-05-02 02:48 334K
20260502T00Z_MSC_RDPS_AirTemp_IsbL-0050_RLatLon0.09_PT028H.grib2 2026-05-02 02:48 313K
20260502T00Z_MSC_RDPS_AirTemp_IsbL-0100_RLatLon0.09_PT028H.grib2 2026-05-02 02:48 421K
20260502T00Z_MSC_RDPS_AirTemp_IsbL-0150_RLatLon0.09_PT028H.grib2 2026-05-02 02:48 418K
20260502T00Z_MSC_RDPS_AirTemp_IsbL-0175_RLatLon0.09_PT028H.grib2 2026-05-02 02:48 407K
20260502T00Z_MSC_RDPS_AirTemp_IsbL-0200_RLatLon0.09_PT028H.grib2 2026-05-02 02:48 412K
20260502T00Z_MSC_RDPS_AirTemp_IsbL-0225_RLatLon0.09_PT028H.grib2 2026-05-02 02:48 413K
20260502T00Z_MSC_RDPS_AirTemp_IsbL-0250_RLatLon0.09_PT028H.grib2 2026-05-02 02:48 419K
20260502T00Z_MSC_RDPS_AirTemp_IsbL-0275_RLatLon0.09_PT028H.grib2 2026-05-02 02:48 400K
20260502T00Z_MSC_RDPS_AirTemp_IsbL-0300_RLatLon0.09_PT028H.grib2 2026-05-02 02:48 408K
20260502T00Z_MSC_RDPS_AirTemp_IsbL-0350_RLatLon0.09_PT028H.grib2 2026-05-02 02:48 424K
20260502T00Z_MSC_RDPS_AirTemp_IsbL-0400_RLatLon0.09_PT028H.grib2 2026-05-02 02:48 425K
20260502T00Z_MSC_RDPS_AirTemp_IsbL-0450_RLatLon0.09_PT028H.grib2 2026-05-02 02:48 399K
20260502T00Z_MSC_RDPS_AirTemp_IsbL-0500_RLatLon0.09_PT028H.grib2 2026-05-02 02:48 411K
20260502T00Z_MSC_RDPS_AirTemp_IsbL-0550_RLatLon0.09_PT028H.grib2 2026-05-02 02:48 428K
20260502T00Z_MSC_RDPS_AirTemp_IsbL-0600_RLatLon0.09_PT028H.grib2 2026-05-02 02:48 444K
20260502T00Z_MSC_RDPS_AirTemp_IsbL-0650_RLatLon0.09_PT028H.grib2 2026-05-02 02:48 457K
20260502T00Z_MSC_RDPS_AirTemp_IsbL-0700_RLatLon0.09_PT028H.grib2 2026-05-02 02:48 482K
20260502T00Z_MSC_RDPS_AirTemp_IsbL-0750_RLatLon0.09_PT028H.grib2 2026-05-02 02:48 404K
20260502T00Z_MSC_RDPS_AirTemp_IsbL-0800_RLatLon0.09_PT028H.grib2 2026-05-02 02:48 445K
20260502T00Z_MSC_RDPS_AirTemp_IsbL-0850_RLatLon0.09_PT028H.grib2 2026-05-02 02:48 495K
20260502T00Z_MSC_RDPS_AirTemp_IsbL-0875_RLatLon0.09_PT028H.grib2 2026-05-02 02:48 515K
20260502T00Z_MSC_RDPS_AirTemp_IsbL-0900_RLatLon0.09_PT028H.grib2 2026-05-02 02:48 524K
20260502T00Z_MSC_RDPS_AirTemp_IsbL-0925_RLatLon0.09_PT028H.grib2 2026-05-02 02:48 517K
20260502T00Z_MSC_RDPS_AirTemp_IsbL-0950_RLatLon0.09_PT028H.grib2 2026-05-02 02:48 517K
20260502T00Z_MSC_RDPS_AirTemp_IsbL-0970_RLatLon0.09_PT028H.grib2 2026-05-02 02:48 510K
20260502T00Z_MSC_RDPS_AirTemp_IsbL-0985_RLatLon0.09_PT028H.grib2 2026-05-02 02:48 500K
20260502T00Z_MSC_RDPS_AirTemp_IsbL-1000_RLatLon0.09_PT028H.grib2 2026-05-02 02:48 483K
20260502T00Z_MSC_RDPS_AirTemp_IsbL-1015_RLatLon0.09_PT028H.grib2 2026-05-02 02:48 480K
20260502T00Z_MSC_RDPS_Albedo_Sfc_RLatLon0.09_PT028H.grib2 2026-05-02 02:48 159K
20260502T00Z_MSC_RDPS_CAPE_Sfc_RLatLon0.09_PT028H.grib2 2026-05-02 02:48 1.6M
20260502T00Z_MSC_RDPS_CIN_Sfc_RLatLon0.09_PT028H.grib2 2026-05-02 02:48 1.1M
20260502T00Z_MSC_RDPS_CloudWater_EAtm_RLatLon0.09_PT028H.grib2 2026-05-02 02:48 220K
20260502T00Z_MSC_RDPS_ConvectivePrecip-Accum_Sfc_RLatLon0.09_PT028H.grib2 2026-05-02 02:48 860K
20260502T00Z_MSC_RDPS_DewPointDepression_AGL-2m_RLatLon0.09_PT028H.grib2 2026-05-02 02:48 397K
20260502T00Z_MSC_RDPS_DewPointDepression_IsbL-0001_RLatLon0.09_PT028H.grib2 2026-05-02 02:48 193
20260502T00Z_MSC_RDPS_DewPointDepression_IsbL-0005_RLatLon0.09_PT028H.grib2 2026-05-02 02:48 193
20260502T00Z_MSC_RDPS_DewPointDepression_IsbL-0010_RLatLon0.09_PT028H.grib2 2026-05-02 02:48 193
20260502T00Z_MSC_RDPS_DewPointDepression_IsbL-0020_RLatLon0.09_PT028H.grib2 2026-05-02 02:48 193
20260502T00Z_MSC_RDPS_DewPointDepression_IsbL-0030_RLatLon0.09_PT028H.grib2 2026-05-02 02:48 193
20260502T00Z_MSC_RDPS_DewPointDepression_IsbL-0050_RLatLon0.09_PT028H.grib2 2026-05-02 02:48 104K
20260502T00Z_MSC_RDPS_DewPointDepression_IsbL-0100_RLatLon0.09_PT028H.grib2 2026-05-02 02:48 120K
20260502T00Z_MSC_RDPS_DewPointDepression_IsbL-0150_RLatLon0.09_PT028H.grib2 2026-05-02 02:48 150K
20260502T00Z_MSC_RDPS_DewPointDepression_IsbL-0175_RLatLon0.09_PT028H.grib2 2026-05-02 02:48 183K
20260502T00Z_MSC_RDPS_DewPointDepression_IsbL-0200_RLatLon0.09_PT028H.grib2 2026-05-02 02:48 216K
20260502T00Z_MSC_RDPS_DewPointDepression_IsbL-0225_RLatLon0.09_PT028H.grib2 2026-05-02 02:48 253K
20260502T00Z_MSC_RDPS_DewPointDepression_IsbL-0250_RLatLon0.09_PT028H.grib2 2026-05-02 02:48 292K
20260502T00Z_MSC_RDPS_DewPointDepression_IsbL-0275_RLatLon0.09_PT028H.grib2 2026-05-02 02:48 306K
20260502T00Z_MSC_RDPS_DewPointDepression_IsbL-0300_RLatLon0.09_PT028H.grib2 2026-05-02 02:48 324K
20260502T00Z_MSC_RDPS_DewPointDepression_IsbL-0350_RLatLon0.09_PT028H.grib2 2026-05-02 02:48 331K
20260502T00Z_MSC_RDPS_DewPointDepression_IsbL-0400_RLatLon0.09_PT028H.grib2 2026-05-02 02:48 342K
20260502T00Z_MSC_RDPS_DewPointDepression_IsbL-0450_RLatLon0.09_PT028H.grib2 2026-05-02 02:48 348K
20260502T00Z_MSC_RDPS_DewPointDepression_IsbL-0500_RLatLon0.09_PT028H.grib2 2026-05-02 02:48 353K
20260502T00Z_MSC_RDPS_DewPointDepression_IsbL-0550_RLatLon0.09_PT028H.grib2 2026-05-02 02:48 365K
20260502T00Z_MSC_RDPS_DewPointDepression_IsbL-0600_RLatLon0.09_PT028H.grib2 2026-05-02 02:48 374K
20260502T00Z_MSC_RDPS_DewPointDepression_IsbL-0650_RLatLon0.09_PT028H.grib2 2026-05-02 02:48 382K
20260502T00Z_MSC_RDPS_DewPointDepression_IsbL-0700_RLatLon0.09_PT028H.grib2 2026-05-02 02:48 393K
20260502T00Z_MSC_RDPS_DewPointDepression_IsbL-0750_RLatLon0.09_PT028H.grib2 2026-05-02 02:48 410K
20260502T00Z_MSC_RDPS_DewPointDepression_IsbL-0800_RLatLon0.09_PT028H.grib2 2026-05-02 02:48 439K
20260502T00Z_MSC_RDPS_DewPointDepression_IsbL-0850_RLatLon0.09_PT028H.grib2 2026-05-02 02:48 471K
20260502T00Z_MSC_RDPS_DewPointDepression_IsbL-0875_RLatLon0.09_PT028H.grib2 2026-05-02 02:48 473K
20260502T00Z_MSC_RDPS_DewPointDepression_IsbL-0900_RLatLon0.09_PT028H.grib2 2026-05-02 02:48 463K
20260502T00Z_MSC_RDPS_DewPointDepression_IsbL-0925_RLatLon0.09_PT028H.grib2 2026-05-02 02:48 446K
20260502T00Z_MSC_RDPS_DewPointDepression_IsbL-0950_RLatLon0.09_PT028H.grib2 2026-05-02 02:48 439K
20260502T00Z_MSC_RDPS_DewPointDepression_IsbL-0970_RLatLon0.09_PT028H.grib2 2026-05-02 02:48 429K
20260502T00Z_MSC_RDPS_DewPointDepression_IsbL-0985_RLatLon0.09_PT028H.grib2 2026-05-02 02:48 424K
20260502T00Z_MSC_RDPS_DewPointDepression_IsbL-1000_RLatLon0.09_PT028H.grib2 2026-05-02 02:48 418K
20260502T00Z_MSC_RDPS_DewPointDepression_IsbL-1015_RLatLon0.09_PT028H.grib2 2026-05-02 02:48 409K
20260502T00Z_MSC_RDPS_DewPoint_AGL-2m_RLatLon0.09_PT028H.grib2 2026-05-02 02:48 302K
20260502T00Z_MSC_RDPS_DownwardLongwaveRadiationFlux-Accum_Sfc_RLatLon0.09_PT028H.grib2 2026-05-02 02:48 468K
20260502T00Z_MSC_RDPS_DownwardShortwaveRadiationFlux-Accum_NTAtm_RLatLon0.09_PT028H.grib2 2026-05-02 02:48 92K
20260502T00Z_MSC_RDPS_DownwardShortwaveRadiationFlux-Accum_Sfc_RLatLon0.09_PT028H.grib2 2026-05-02 02:48 651K
20260502T00Z_MSC_RDPS_FreezingRain-Accum1h_Sfc_RLatLon0.09_PT028H.grib2 2026-05-02 02:48 26K
20260502T00Z_MSC_RDPS_FreezingRain-Accum_Sfc_RLatLon0.09_PT028H.grib2 2026-05-02 02:48 118K
20260502T00Z_MSC_RDPS_GeopotentialHeight_IsbL-0001_RLatLon0.09_PT028H.grib2 2026-05-02 02:48 234K
20260502T00Z_MSC_RDPS_GeopotentialHeight_IsbL-0005_RLatLon0.09_PT028H.grib2 2026-05-02 02:48 297K
20260502T00Z_MSC_RDPS_GeopotentialHeight_IsbL-0010_RLatLon0.09_PT028H.grib2 2026-05-02 02:48 298K
20260502T00Z_MSC_RDPS_GeopotentialHeight_IsbL-0020_RLatLon0.09_PT028H.grib2 2026-05-02 02:48 393K
20260502T00Z_MSC_RDPS_GeopotentialHeight_IsbL-0030_RLatLon0.09_PT028H.grib2 2026-05-02 02:48 301K
20260502T00Z_MSC_RDPS_GeopotentialHeight_IsbL-0050_RLatLon0.09_PT028H.grib2 2026-05-02 02:48 337K
20260502T00Z_MSC_RDPS_GeopotentialHeight_IsbL-0100_RLatLon0.09_PT028H.grib2 2026-05-02 02:48 284K
20260502T00Z_MSC_RDPS_GeopotentialHeight_IsbL-0150_RLatLon0.09_PT028H.grib2 2026-05-02 02:48 228K
20260502T00Z_MSC_RDPS_GeopotentialHeight_IsbL-0175_RLatLon0.09_PT028H.grib2 2026-05-02 02:48 261K
20260502T00Z_MSC_RDPS_GeopotentialHeight_IsbL-0200_RLatLon0.09_PT028H.grib2 2026-05-02 02:48 262K
20260502T00Z_MSC_RDPS_GeopotentialHeight_IsbL-0225_RLatLon0.09_PT028H.grib2 2026-05-02 02:48 263K
20260502T00Z_MSC_RDPS_GeopotentialHeight_IsbL-0250_RLatLon0.09_PT028H.grib2 2026-05-02 02:48 264K
20260502T00Z_MSC_RDPS_GeopotentialHeight_IsbL-0275_RLatLon0.09_PT028H.grib2 2026-05-02 02:48 263K
20260502T00Z_MSC_RDPS_GeopotentialHeight_IsbL-0300_RLatLon0.09_PT028H.grib2 2026-05-02 02:48 263K
20260502T00Z_MSC_RDPS_GeopotentialHeight_IsbL-0350_RLatLon0.09_PT028H.grib2 2026-05-02 02:48 229K
20260502T00Z_MSC_RDPS_GeopotentialHeight_IsbL-0400_RLatLon0.09_PT028H.grib2 2026-05-02 02:48 226K
20260502T00Z_MSC_RDPS_GeopotentialHeight_IsbL-0450_RLatLon0.09_PT028H.grib2 2026-05-02 02:48 296K
20260502T00Z_MSC_RDPS_GeopotentialHeight_IsbL-0500_RLatLon0.09_PT028H.grib2 2026-05-02 02:48 291K
20260502T00Z_MSC_RDPS_GeopotentialHeight_IsbL-0550_RLatLon0.09_PT028H.grib2 2026-05-02 02:48 288K
20260502T00Z_MSC_RDPS_GeopotentialHeight_IsbL-0600_RLatLon0.09_PT028H.grib2 2026-05-02 02:48 285K
20260502T00Z_MSC_RDPS_GeopotentialHeight_IsbL-0650_RLatLon0.09_PT028H.grib2 2026-05-02 02:48 254K
20260502T00Z_MSC_RDPS_GeopotentialHeight_IsbL-0700_RLatLon0.09_PT028H.grib2 2026-05-02 02:48 253K
20260502T00Z_MSC_RDPS_GeopotentialHeight_IsbL-0750_RLatLon0.09_PT028H.grib2 2026-05-02 02:48 338K
20260502T00Z_MSC_RDPS_GeopotentialHeight_IsbL-0800_RLatLon0.09_PT028H.grib2 2026-05-02 02:48 345K
20260502T00Z_MSC_RDPS_GeopotentialHeight_IsbL-0850_RLatLon0.09_PT028H.grib2 2026-05-02 02:48 353K
20260502T00Z_MSC_RDPS_GeopotentialHeight_IsbL-0875_RLatLon0.09_PT028H.grib2 2026-05-02 02:48 354K
20260502T00Z_MSC_RDPS_GeopotentialHeight_IsbL-0900_RLatLon0.09_PT028H.grib2 2026-05-02 02:48 359K
20260502T00Z_MSC_RDPS_GeopotentialHeight_IsbL-0925_RLatLon0.09_PT028H.grib2 2026-05-02 02:48 360K
20260502T00Z_MSC_RDPS_GeopotentialHeight_IsbL-0950_RLatLon0.09_PT028H.grib2 2026-05-02 02:48 364K
20260502T00Z_MSC_RDPS_GeopotentialHeight_IsbL-0970_RLatLon0.09_PT028H.grib2 2026-05-02 02:48 371K
20260502T00Z_MSC_RDPS_GeopotentialHeight_IsbL-0985_RLatLon0.09_PT028H.grib2 2026-05-02 02:48 378K
20260502T00Z_MSC_RDPS_GeopotentialHeight_IsbL-1000_RLatLon0.09_PT028H.grib2 2026-05-02 02:48 389K
20260502T00Z_MSC_RDPS_GeopotentialHeight_IsbL-1015_RLatLon0.09_PT028H.grib2 2026-05-02 02:48 402K
20260502T00Z_MSC_RDPS_Humidex_Sfc_RLatLon0.09_PT028H.grib2 2026-05-02 02:48 2.4M
20260502T00Z_MSC_RDPS_IcePellets-Accum1h_Sfc_RLatLon0.09_PT028H.grib2 2026-05-02 02:48 3.6K
20260502T00Z_MSC_RDPS_IcePellets-Accum_Sfc_RLatLon0.09_PT028H.grib2 2026-05-02 02:48 18K
20260502T00Z_MSC_RDPS_KIndex_Sfc_RLatLon0.09_PT028H.grib2 2026-05-02 02:48 2.4M
20260502T00Z_MSC_RDPS_LatentHeatNetFlux_Sfc_RLatLon0.09_PT028H.grib2 2026-05-02 02:48 403K
20260502T00Z_MSC_RDPS_LiftedIndex-MU-VT_IsbL-0500_RLatLon0.09_PT028H.grib2 2026-05-02 02:48 2.4M
20260502T00Z_MSC_RDPS_NetLongwaveRadiationFlux-Accum_Sfc_RLatLon0.09_PT028H.grib2 2026-05-02 02:48 609K
20260502T00Z_MSC_RDPS_NetShortwaveRadiationFlux-Accum_Sfc_RLatLon0.09_PT028H.grib2 2026-05-02 02:48 650K
20260502T00Z_MSC_RDPS_PlanetaryBoundaryLayerHeight_Sfc_RLatLon0.09_PT028H.grib2 2026-05-02 02:48 1.1M
20260502T00Z_MSC_RDPS_Precip-Accum1h_Sfc_RLatLon0.09_PT028H.grib2 2026-05-02 02:48 1.2M
20260502T00Z_MSC_RDPS_Precip-Accum_Sfc_RLatLon0.09_PT028H.grib2 2026-05-02 02:48 1.9M
20260502T00Z_MSC_RDPS_PrecipRate_Sfc_RLatLon0.09_PT028H.grib2 2026-05-02 02:48 173K
20260502T00Z_MSC_RDPS_PrecipType-Instant_Sfc_RLatLon0.09_PT028H.grib2 2026-05-02 02:48 577K
20260502T00Z_MSC_RDPS_Pressure-Trend3h_Sfc_RLatLon0.09_PT028H.grib2 2026-05-02 02:48 1.2M
20260502T00Z_MSC_RDPS_Pressure_MSL_RLatLon0.09_PT028H.grib2 2026-05-02 02:48 322K
20260502T00Z_MSC_RDPS_Pressure_PVU-1.5_RLatLon0.09_PT028H.grib2 2026-05-02 02:48 2.5M
20260502T00Z_MSC_RDPS_Pressure_PVU-1_RLatLon0.09_PT028H.grib2 2026-05-02 02:48 2.4M
20260502T00Z_MSC_RDPS_Pressure_PVU-2_RLatLon0.09_PT028H.grib2 2026-05-02 02:48 2.4M
20260502T00Z_MSC_RDPS_Pressure_Sfc_RLatLon0.09_PT028H.grib2 2026-05-02 02:48 498K
20260502T00Z_MSC_RDPS_RadiativeTemp_Sfc_RLatLon0.09_PT028H.grib2 2026-05-02 02:48 301K
20260502T00Z_MSC_RDPS_Rain-Accum1h_Sfc_RLatLon0.09_PT028H.grib2 2026-05-02 02:48 521K
20260502T00Z_MSC_RDPS_Rain-Accum_Sfc_RLatLon0.09_PT028H.grib2 2026-05-02 02:48 1.5M
20260502T00Z_MSC_RDPS_RelativeHumidity_AGL-2m_RLatLon0.09_PT028H.grib2 2026-05-02 02:48 1.0M
20260502T00Z_MSC_RDPS_RelativeHumidity_IsbL-0010_RLatLon0.09_PT028H.grib2 2026-05-02 02:48 629K
20260502T00Z_MSC_RDPS_RelativeHumidity_IsbL-0020_RLatLon0.09_PT028H.grib2 2026-05-02 02:48 670K
20260502T00Z_MSC_RDPS_RelativeHumidity_IsbL-0030_RLatLon0.09_PT028H.grib2 2026-05-02 02:48 602K
20260502T00Z_MSC_RDPS_RelativeHumidity_IsbL-0050_RLatLon0.09_PT028H.grib2 2026-05-02 02:48 359K
20260502T00Z_MSC_RDPS_RelativeHumidity_IsbL-0100_RLatLon0.09_PT028H.grib2 2026-05-02 02:48 278K
20260502T00Z_MSC_RDPS_RelativeHumidity_IsbL-0150_RLatLon0.09_PT028H.grib2 2026-05-02 02:48 412K
20260502T00Z_MSC_RDPS_RelativeHumidity_IsbL-0175_RLatLon0.09_PT028H.grib2 2026-05-02 02:48 472K
20260502T00Z_MSC_RDPS_RelativeHumidity_IsbL-0200_RLatLon0.09_PT028H.grib2 2026-05-02 02:48 543K
20260502T00Z_MSC_RDPS_RelativeHumidity_IsbL-0225_RLatLon0.09_PT028H.grib2 2026-05-02 02:48 606K
20260502T00Z_MSC_RDPS_RelativeHumidity_IsbL-0250_RLatLon0.09_PT028H.grib2 2026-05-02 02:48 674K
20260502T00Z_MSC_RDPS_RelativeHumidity_IsbL-0275_RLatLon0.09_PT028H.grib2 2026-05-02 02:48 701K
20260502T00Z_MSC_RDPS_RelativeHumidity_IsbL-0300_RLatLon0.09_PT028H.grib2 2026-05-02 02:48 744K
20260502T00Z_MSC_RDPS_RelativeHumidity_IsbL-0350_RLatLon0.09_PT028H.grib2 2026-05-02 02:48 770K
20260502T00Z_MSC_RDPS_RelativeHumidity_IsbL-0400_RLatLon0.09_PT028H.grib2 2026-05-02 02:48 786K
20260502T00Z_MSC_RDPS_RelativeHumidity_IsbL-0450_RLatLon0.09_PT028H.grib2 2026-05-02 02:48 793K
20260502T00Z_MSC_RDPS_RelativeHumidity_IsbL-0500_RLatLon0.09_PT028H.grib2 2026-05-02 02:48 800K
20260502T00Z_MSC_RDPS_RelativeHumidity_IsbL-0550_RLatLon0.09_PT028H.grib2 2026-05-02 02:48 819K
20260502T00Z_MSC_RDPS_RelativeHumidity_IsbL-0600_RLatLon0.09_PT028H.grib2 2026-05-02 02:48 838K
20260502T00Z_MSC_RDPS_RelativeHumidity_IsbL-0650_RLatLon0.09_PT028H.grib2 2026-05-02 02:48 855K
20260502T00Z_MSC_RDPS_RelativeHumidity_IsbL-0700_RLatLon0.09_PT028H.grib2 2026-05-02 02:48 878K
20260502T00Z_MSC_RDPS_RelativeHumidity_IsbL-0750_RLatLon0.09_PT028H.grib2 2026-05-02 02:48 923K
20260502T00Z_MSC_RDPS_RelativeHumidity_IsbL-0800_RLatLon0.09_PT028H.grib2 2026-05-02 02:48 1.0M
20260502T00Z_MSC_RDPS_RelativeHumidity_IsbL-0850_RLatLon0.09_PT028H.grib2 2026-05-02 02:48 1.0M
20260502T00Z_MSC_RDPS_RelativeHumidity_IsbL-0875_RLatLon0.09_PT028H.grib2 2026-05-02 02:48 1.0M
20260502T00Z_MSC_RDPS_RelativeHumidity_IsbL-0900_RLatLon0.09_PT028H.grib2 2026-05-02 02:48 1.1M
20260502T00Z_MSC_RDPS_RelativeHumidity_IsbL-0925_RLatLon0.09_PT028H.grib2 2026-05-02 02:48 1.1M
20260502T00Z_MSC_RDPS_RelativeHumidity_IsbL-0950_RLatLon0.09_PT028H.grib2 2026-05-02 02:48 1.0M
20260502T00Z_MSC_RDPS_RelativeHumidity_IsbL-0970_RLatLon0.09_PT028H.grib2 2026-05-02 02:48 1.0M
20260502T00Z_MSC_RDPS_RelativeHumidity_IsbL-0985_RLatLon0.09_PT028H.grib2 2026-05-02 02:48 1.0M
20260502T00Z_MSC_RDPS_RelativeHumidity_IsbL-1000_RLatLon0.09_PT028H.grib2 2026-05-02 02:48 1.0M
20260502T00Z_MSC_RDPS_RelativeHumidity_IsbL-1015_RLatLon0.09_PT028H.grib2 2026-05-02 02:48 1.0M
20260502T00Z_MSC_RDPS_Runoff-Accum_Sfc_RLatLon0.09_PT028H.grib2 2026-05-02 02:48 60K
20260502T00Z_MSC_RDPS_SWEATIndex_Sfc_RLatLon0.09_PT028H.grib2 2026-05-02 02:48 2.4M
20260502T00Z_MSC_RDPS_SeeingIndex_EAtm_RLatLon0.09_PT028H.grib2 2026-05-02 02:48 1.0M
20260502T00Z_MSC_RDPS_SensibleHeatNetFlux_Sfc_RLatLon0.09_PT028H.grib2 2026-05-02 02:48 288K
20260502T00Z_MSC_RDPS_ShowalterIndex_IsbL-0500_RLatLon0.09_PT028H.grib2 2026-05-02 02:48 2.6M
20260502T00Z_MSC_RDPS_SkyTransparencyIndex_EAtm_RLatLon0.09_PT028H.grib2 2026-05-02 02:48 708K
20260502T00Z_MSC_RDPS_Snow-Accum1h_Sfc_RLatLon0.09_PT028H.grib2 2026-05-02 02:48 448K
20260502T00Z_MSC_RDPS_Snow-Accum_Sfc_RLatLon0.09_PT028H.grib2 2026-05-02 02:48 693K
20260502T00Z_MSC_RDPS_SnowDensity_Sfc_RLatLon0.09_PT028H.grib2 2026-05-02 02:48 169K
20260502T00Z_MSC_RDPS_SnowDepth_Sfc_RLatLon0.09_PT028H.grib2 2026-05-02 02:48 656K
20260502T00Z_MSC_RDPS_SoilTemp_DBS-0to10cm_RLatLon0.09_PT028H.grib2 2026-05-02 02:48 231K
20260502T00Z_MSC_RDPS_SoilTemp_Sfc_RLatLon0.09_PT028H.grib2 2026-05-02 02:48 259K
20260502T00Z_MSC_RDPS_SoilVolumetricIceContent_Sfc_RLatLon0.09_PT028H.grib2 2026-05-02 02:48 158K
20260502T00Z_MSC_RDPS_SoilVolumetricWaterContent_DBS-0to10cm_RLatLon0.09_PT028H.grib2 2026-05-02 02:48 272K
20260502T00Z_MSC_RDPS_SoilVolumetricWaterContent_DBS-0to1cm_RLatLon0.09_PT028H.grib2 2026-05-02 02:48 341K
20260502T00Z_MSC_RDPS_SpecificHumidity_AGL-120m_RLatLon0.09_PT028H.grib2 2026-05-02 02:48 482K
20260502T00Z_MSC_RDPS_SpecificHumidity_AGL-2m_RLatLon0.09_PT028H.grib2 2026-05-02 02:48 645K
20260502T00Z_MSC_RDPS_SpecificHumidity_AGL-40m_RLatLon0.09_PT028H.grib2 2026-05-02 02:48 488K
20260502T00Z_MSC_RDPS_SpecificHumidity_AGL-80m_RLatLon0.09_PT028H.grib2 2026-05-02 02:48 483K
20260502T00Z_MSC_RDPS_SpecificHumidity_IsbL-0001_RLatLon0.09_PT028H.grib2 2026-05-02 02:48 357K
20260502T00Z_MSC_RDPS_SpecificHumidity_IsbL-0005_RLatLon0.09_PT028H.grib2 2026-05-02 02:48 366K
20260502T00Z_MSC_RDPS_SpecificHumidity_IsbL-0010_RLatLon0.09_PT028H.grib2 2026-05-02 02:48 397K
20260502T00Z_MSC_RDPS_SpecificHumidity_IsbL-0020_RLatLon0.09_PT028H.grib2 2026-05-02 02:48 379K
20260502T00Z_MSC_RDPS_SpecificHumidity_IsbL-0030_RLatLon0.09_PT028H.grib2 2026-05-02 02:48 372K
20260502T00Z_MSC_RDPS_SpecificHumidity_IsbL-0050_RLatLon0.09_PT028H.grib2 2026-05-02 02:48 483K
20260502T00Z_MSC_RDPS_SpecificHumidity_IsbL-0100_RLatLon0.09_PT028H.grib2 2026-05-02 02:48 422K
20260502T00Z_MSC_RDPS_SpecificHumidity_IsbL-0150_RLatLon0.09_PT028H.grib2 2026-05-02 02:48 454K
20260502T00Z_MSC_RDPS_SpecificHumidity_IsbL-0175_RLatLon0.09_PT028H.grib2 2026-05-02 02:48 433K
20260502T00Z_MSC_RDPS_SpecificHumidity_IsbL-0200_RLatLon0.09_PT028H.grib2 2026-05-02 02:48 445K
20260502T00Z_MSC_RDPS_SpecificHumidity_IsbL-0225_RLatLon0.09_PT028H.grib2 2026-05-02 02:48 445K
20260502T00Z_MSC_RDPS_SpecificHumidity_IsbL-0250_RLatLon0.09_PT028H.grib2 2026-05-02 02:48 507K
20260502T00Z_MSC_RDPS_SpecificHumidity_IsbL-0275_RLatLon0.09_PT028H.grib2 2026-05-02 02:48 469K
20260502T00Z_MSC_RDPS_SpecificHumidity_IsbL-0300_RLatLon0.09_PT028H.grib2 2026-05-02 02:48 444K
20260502T00Z_MSC_RDPS_SpecificHumidity_IsbL-0350_RLatLon0.09_PT028H.grib2 2026-05-02 02:48 442K
20260502T00Z_MSC_RDPS_SpecificHumidity_IsbL-0400_RLatLon0.09_PT028H.grib2 2026-05-02 02:48 523K
20260502T00Z_MSC_RDPS_SpecificHumidity_IsbL-0450_RLatLon0.09_PT028H.grib2 2026-05-02 02:48 573K
20260502T00Z_MSC_RDPS_SpecificHumidity_IsbL-0500_RLatLon0.09_PT028H.grib2 2026-05-02 02:48 509K
20260502T00Z_MSC_RDPS_SpecificHumidity_IsbL-0550_RLatLon0.09_PT028H.grib2 2026-05-02 02:48 583K
20260502T00Z_MSC_RDPS_SpecificHumidity_IsbL-0600_RLatLon0.09_PT028H.grib2 2026-05-02 02:48 634K
20260502T00Z_MSC_RDPS_SpecificHumidity_IsbL-0650_RLatLon0.09_PT028H.grib2 2026-05-02 02:48 553K
20260502T00Z_MSC_RDPS_SpecificHumidity_IsbL-0700_RLatLon0.09_PT028H.grib2 2026-05-02 02:48 596K
20260502T00Z_MSC_RDPS_SpecificHumidity_IsbL-0750_RLatLon0.09_PT028H.grib2 2026-05-02 02:48 648K
20260502T00Z_MSC_RDPS_SpecificHumidity_IsbL-0800_RLatLon0.09_PT028H.grib2 2026-05-02 02:48 725K
20260502T00Z_MSC_RDPS_SpecificHumidity_IsbL-0850_RLatLon0.09_PT028H.grib2 2026-05-02 02:48 801K
20260502T00Z_MSC_RDPS_SpecificHumidity_IsbL-0875_RLatLon0.09_PT028H.grib2 2026-05-02 02:48 827K
20260502T00Z_MSC_RDPS_SpecificHumidity_IsbL-0900_RLatLon0.09_PT028H.grib2 2026-05-02 02:48 841K
20260502T00Z_MSC_RDPS_SpecificHumidity_IsbL-0925_RLatLon0.09_PT028H.grib2 2026-05-02 02:48 839K
20260502T00Z_MSC_RDPS_SpecificHumidity_IsbL-0950_RLatLon0.09_PT028H.grib2 2026-05-02 02:48 838K
20260502T00Z_MSC_RDPS_SpecificHumidity_IsbL-0970_RLatLon0.09_PT028H.grib2 2026-05-02 02:48 685K
20260502T00Z_MSC_RDPS_SpecificHumidity_IsbL-0985_RLatLon0.09_PT028H.grib2 2026-05-02 02:48 677K
20260502T00Z_MSC_RDPS_SpecificHumidity_IsbL-1000_RLatLon0.09_PT028H.grib2 2026-05-02 02:48 671K
20260502T00Z_MSC_RDPS_SpecificHumidity_IsbL-1015_RLatLon0.09_PT028H.grib2 2026-05-02 02:48 659K
20260502T00Z_MSC_RDPS_SpecificHumidity_Sfc_RLatLon0.09_PT028H.grib2 2026-05-02 02:48 312K
20260502T00Z_MSC_RDPS_StormRelativeHelicity_EtaL-10000_RLatLon0.09_PT028H.grib2 2026-05-02 02:48 1.1M
20260502T00Z_MSC_RDPS_StormSeverityIndex_EtaL-10000_RLatLon0.09_PT028H.grib2 2026-05-02 02:48 1.1M
20260502T00Z_MSC_RDPS_Thickness_IsbL-0850to0700_RLatLon0.09_PT028H.grib2 2026-05-02 02:48 175K
20260502T00Z_MSC_RDPS_Thickness_IsbL-1000to0500_RLatLon0.09_PT028H.grib2 2026-05-02 02:48 195K
20260502T00Z_MSC_RDPS_Thickness_IsbL-1000to0850_RLatLon0.09_PT028H.grib2 2026-05-02 02:48 258K
20260502T00Z_MSC_RDPS_TotalCloudCover_Sfc_RLatLon0.09_PT028H.grib2 2026-05-02 02:48 653K
20260502T00Z_MSC_RDPS_TotalTotalsIndex_Sfc_RLatLon0.09_PT028H.grib2 2026-05-02 02:48 2.3M
20260502T00Z_MSC_RDPS_UVIndex-ClearSky_Sfc_RLatLon0.09_PT028H.grib2 2026-05-02 02:48 116K
20260502T00Z_MSC_RDPS_UVIndex_Sfc_RLatLon0.09_PT028H.grib2 2026-05-02 02:48 202K
20260502T00Z_MSC_RDPS_UpwardLongwaveRadiationFlux_NTAtm_RLatLon0.09_PT028H.grib2 2026-05-02 02:48 479K
20260502T00Z_MSC_RDPS_UpwardShortwaveRadiationFlux_NTAtm_RLatLon0.09_PT028H.grib2 2026-05-02 02:48 162K
20260502T00Z_MSC_RDPS_VerticalVelocity_IsbL-0250_RLatLon0.09_PT028H.grib2 2026-05-02 02:48 429K
20260502T00Z_MSC_RDPS_VerticalVelocity_IsbL-0500_RLatLon0.09_PT028H.grib2 2026-05-02 02:48 536K
20260502T00Z_MSC_RDPS_VerticalVelocity_IsbL-0700_RLatLon0.09_PT028H.grib2 2026-05-02 02:48 589K
20260502T00Z_MSC_RDPS_VerticalVelocity_IsbL-0850_RLatLon0.09_PT028H.grib2 2026-05-02 02:48 692K
20260502T00Z_MSC_RDPS_VerticalWindShear_EtaL-6500_RLatLon0.09_PT028H.grib2 2026-05-02 02:48 1.2M
20260502T00Z_MSC_RDPS_WindChill_Sfc_RLatLon0.09_PT028H.grib2 2026-05-02 02:48 1.2M
20260502T00Z_MSC_RDPS_WindDir_AGL-10m_RLatLon0.09_PT028H.grib2 2026-05-02 02:48 957K
20260502T00Z_MSC_RDPS_WindDir_AGL-120m_RLatLon0.09_PT028H.grib2 2026-05-02 02:48 591K
20260502T00Z_MSC_RDPS_WindDir_AGL-40m_RLatLon0.09_PT028H.grib2 2026-05-02 02:48 625K
20260502T00Z_MSC_RDPS_WindDir_AGL-80m_RLatLon0.09_PT028H.grib2 2026-05-02 02:48 604K
20260502T00Z_MSC_RDPS_WindDir_IsbL-0001_RLatLon0.09_PT028H.grib2 2026-05-02 02:48 315K
20260502T00Z_MSC_RDPS_WindDir_IsbL-0005_RLatLon0.09_PT028H.grib2 2026-05-02 02:48 381K
20260502T00Z_MSC_RDPS_WindDir_IsbL-0010_RLatLon0.09_PT028H.grib2 2026-05-02 02:48 394K
20260502T00Z_MSC_RDPS_WindDir_IsbL-0020_RLatLon0.09_PT028H.grib2 2026-05-02 02:48 426K
20260502T00Z_MSC_RDPS_WindDir_IsbL-0030_RLatLon0.09_PT028H.grib2 2026-05-02 02:48 425K
20260502T00Z_MSC_RDPS_WindDir_IsbL-0050_RLatLon0.09_PT028H.grib2 2026-05-02 02:48 420K
20260502T00Z_MSC_RDPS_WindDir_IsbL-0100_RLatLon0.09_PT028H.grib2 2026-05-02 02:48 414K
20260502T00Z_MSC_RDPS_WindDir_IsbL-0150_RLatLon0.09_PT028H.grib2 2026-05-02 02:48 409K
20260502T00Z_MSC_RDPS_WindDir_IsbL-0175_RLatLon0.09_PT028H.grib2 2026-05-02 02:48 420K
20260502T00Z_MSC_RDPS_WindDir_IsbL-0200_RLatLon0.09_PT028H.grib2 2026-05-02 02:48 436K
20260502T00Z_MSC_RDPS_WindDir_IsbL-0225_RLatLon0.09_PT028H.grib2 2026-05-02 02:48 442K
20260502T00Z_MSC_RDPS_WindDir_IsbL-0250_RLatLon0.09_PT028H.grib2 2026-05-02 02:48 446K
20260502T00Z_MSC_RDPS_WindDir_IsbL-0275_RLatLon0.09_PT028H.grib2 2026-05-02 02:48 474K
20260502T00Z_MSC_RDPS_WindDir_IsbL-0300_RLatLon0.09_PT028H.grib2 2026-05-02 02:48 473K
20260502T00Z_MSC_RDPS_WindDir_IsbL-0350_RLatLon0.09_PT028H.grib2 2026-05-02 02:48 499K
20260502T00Z_MSC_RDPS_WindDir_IsbL-0400_RLatLon0.09_PT028H.grib2 2026-05-02 02:48 517K
20260502T00Z_MSC_RDPS_WindDir_IsbL-0450_RLatLon0.09_PT028H.grib2 2026-05-02 02:48 527K
20260502T00Z_MSC_RDPS_WindDir_IsbL-0500_RLatLon0.09_PT028H.grib2 2026-05-02 02:48 539K
20260502T00Z_MSC_RDPS_WindDir_IsbL-0550_RLatLon0.09_PT028H.grib2 2026-05-02 02:48 554K
20260502T00Z_MSC_RDPS_WindDir_IsbL-0600_RLatLon0.09_PT028H.grib2 2026-05-02 02:48 575K
20260502T00Z_MSC_RDPS_WindDir_IsbL-0650_RLatLon0.09_PT028H.grib2 2026-05-02 02:48 611K
20260502T00Z_MSC_RDPS_WindDir_IsbL-0700_RLatLon0.09_PT028H.grib2 2026-05-02 02:48 655K
20260502T00Z_MSC_RDPS_WindDir_IsbL-0750_RLatLon0.09_PT028H.grib2 2026-05-02 02:48 697K
20260502T00Z_MSC_RDPS_WindDir_IsbL-0800_RLatLon0.09_PT028H.grib2 2026-05-02 02:48 761K
20260502T00Z_MSC_RDPS_WindDir_IsbL-0850_RLatLon0.09_PT028H.grib2 2026-05-02 02:48 843K
20260502T00Z_MSC_RDPS_WindDir_IsbL-0875_RLatLon0.09_PT028H.grib2 2026-05-02 02:48 876K
20260502T00Z_MSC_RDPS_WindDir_IsbL-0900_RLatLon0.09_PT028H.grib2 2026-05-02 02:48 896K
20260502T00Z_MSC_RDPS_WindDir_IsbL-0925_RLatLon0.09_PT028H.grib2 2026-05-02 02:48 908K
20260502T00Z_MSC_RDPS_WindDir_IsbL-0950_RLatLon0.09_PT028H.grib2 2026-05-02 02:48 905K
20260502T00Z_MSC_RDPS_WindDir_IsbL-0970_RLatLon0.09_PT028H.grib2 2026-05-02 02:48 913K
20260502T00Z_MSC_RDPS_WindDir_IsbL-0985_RLatLon0.09_PT028H.grib2 2026-05-02 02:48 919K
20260502T00Z_MSC_RDPS_WindDir_IsbL-1000_RLatLon0.09_PT028H.grib2 2026-05-02 02:48 932K
20260502T00Z_MSC_RDPS_WindDir_IsbL-1015_RLatLon0.09_PT028H.grib2 2026-05-02 02:48 948K
20260502T00Z_MSC_RDPS_WindGust-Max_AGL-10m_RLatLon0.09_PT028H.grib2 2026-05-02 02:48 1.0M
20260502T00Z_MSC_RDPS_WindGust-Min_AGL-10m_RLatLon0.09_PT028H.grib2 2026-05-02 02:48 964K
20260502T00Z_MSC_RDPS_WindGust_AGL-10m_RLatLon0.09_PT028H.grib2 2026-05-02 02:48 1.0M
20260502T00Z_MSC_RDPS_WindSpeed_AGL-10m_RLatLon0.09_PT028H.grib2 2026-05-02 02:48 832K
20260502T00Z_MSC_RDPS_WindSpeed_AGL-120m_RLatLon0.09_PT028H.grib2 2026-05-02 02:48 535K
20260502T00Z_MSC_RDPS_WindSpeed_AGL-40m_RLatLon0.09_PT028H.grib2 2026-05-02 02:48 537K
20260502T00Z_MSC_RDPS_WindSpeed_AGL-80m_RLatLon0.09_PT028H.grib2 2026-05-02 02:48 535K
20260502T00Z_MSC_RDPS_WindSpeed_IsbL-0001_RLatLon0.09_PT028H.grib2 2026-05-02 02:48 251K
20260502T00Z_MSC_RDPS_WindSpeed_IsbL-0005_RLatLon0.09_PT028H.grib2 2026-05-02 02:48 380K
20260502T00Z_MSC_RDPS_WindSpeed_IsbL-0010_RLatLon0.09_PT028H.grib2 2026-05-02 02:48 361K
20260502T00Z_MSC_RDPS_WindSpeed_IsbL-0020_RLatLon0.09_PT028H.grib2 2026-05-02 02:48 417K
20260502T00Z_MSC_RDPS_WindSpeed_IsbL-0030_RLatLon0.09_PT028H.grib2 2026-05-02 02:48 318K
20260502T00Z_MSC_RDPS_WindSpeed_IsbL-0050_RLatLon0.09_PT028H.grib2 2026-05-02 02:48 350K
20260502T00Z_MSC_RDPS_WindSpeed_IsbL-0100_RLatLon0.09_PT028H.grib2 2026-05-02 02:48 476K
20260502T00Z_MSC_RDPS_WindSpeed_IsbL-0150_RLatLon0.09_PT028H.grib2 2026-05-02 02:48 385K
20260502T00Z_MSC_RDPS_WindSpeed_IsbL-0175_RLatLon0.09_PT028H.grib2 2026-05-02 02:48 406K
20260502T00Z_MSC_RDPS_WindSpeed_IsbL-0200_RLatLon0.09_PT028H.grib2 2026-05-02 02:48 440K
20260502T00Z_MSC_RDPS_WindSpeed_IsbL-0225_RLatLon0.09_PT028H.grib2 2026-05-02 02:48 446K
20260502T00Z_MSC_RDPS_WindSpeed_IsbL-0250_RLatLon0.09_PT028H.grib2 2026-05-02 02:48 451K
20260502T00Z_MSC_RDPS_WindSpeed_IsbL-0275_RLatLon0.09_PT028H.grib2 2026-05-02 02:48 468K
20260502T00Z_MSC_RDPS_WindSpeed_IsbL-0300_RLatLon0.09_PT028H.grib2 2026-05-02 02:48 466K
20260502T00Z_MSC_RDPS_WindSpeed_IsbL-0350_RLatLon0.09_PT028H.grib2 2026-05-02 02:48 478K
20260502T00Z_MSC_RDPS_WindSpeed_IsbL-0400_RLatLon0.09_PT028H.grib2 2026-05-02 02:48 481K
20260502T00Z_MSC_RDPS_WindSpeed_IsbL-0450_RLatLon0.09_PT028H.grib2 2026-05-02 02:48 464K
20260502T00Z_MSC_RDPS_WindSpeed_IsbL-0500_RLatLon0.09_PT028H.grib2 2026-05-02 02:48 464K
20260502T00Z_MSC_RDPS_WindSpeed_IsbL-0550_RLatLon0.09_PT028H.grib2 2026-05-02 02:48 584K
20260502T00Z_MSC_RDPS_WindSpeed_IsbL-0600_RLatLon0.09_PT028H.grib2 2026-05-02 02:48 594K
20260502T00Z_MSC_RDPS_WindSpeed_IsbL-0650_RLatLon0.09_PT028H.grib2 2026-05-02 02:48 655K
20260502T00Z_MSC_RDPS_WindSpeed_IsbL-0700_RLatLon0.09_PT028H.grib2 2026-05-02 02:48 680K
20260502T00Z_MSC_RDPS_WindSpeed_IsbL-0750_RLatLon0.09_PT028H.grib2 2026-05-02 02:48 666K
20260502T00Z_MSC_RDPS_WindSpeed_IsbL-0800_RLatLon0.09_PT028H.grib2 2026-05-02 02:48 710K
20260502T00Z_MSC_RDPS_WindSpeed_IsbL-0850_RLatLon0.09_PT028H.grib2 2026-05-02 02:48 814K
20260502T00Z_MSC_RDPS_WindSpeed_IsbL-0875_RLatLon0.09_PT028H.grib2 2026-05-02 02:48 837K
20260502T00Z_MSC_RDPS_WindSpeed_IsbL-0900_RLatLon0.09_PT028H.grib2 2026-05-02 02:48 850K
20260502T00Z_MSC_RDPS_WindSpeed_IsbL-0925_RLatLon0.09_PT028H.grib2 2026-05-02 02:48 863K
20260502T00Z_MSC_RDPS_WindSpeed_IsbL-0950_RLatLon0.09_PT028H.grib2 2026-05-02 02:48 858K
20260502T00Z_MSC_RDPS_WindSpeed_IsbL-0970_RLatLon0.09_PT028H.grib2 2026-05-02 02:48 859K
20260502T00Z_MSC_RDPS_WindSpeed_IsbL-0985_RLatLon0.09_PT028H.grib2 2026-05-02 02:48 852K
20260502T00Z_MSC_RDPS_WindSpeed_IsbL-1000_RLatLon0.09_PT028H.grib2 2026-05-02 02:48 844K
20260502T00Z_MSC_RDPS_WindSpeed_IsbL-1015_RLatLon0.09_PT028H.grib2 2026-05-02 02:48 833K
20260502T00Z_MSC_RDPS_WindU_AGL-10m_RLatLon0.09_PT028H.grib2 2026-05-02 02:48 427K
20260502T00Z_MSC_RDPS_WindU_AGL-120m_RLatLon0.09_PT028H.grib2 2026-05-02 02:48 531K
20260502T00Z_MSC_RDPS_WindU_AGL-40m_RLatLon0.09_PT028H.grib2 2026-05-02 02:48 534K
20260502T00Z_MSC_RDPS_WindU_AGL-80m_RLatLon0.09_PT028H.grib2 2026-05-02 02:48 532K
20260502T00Z_MSC_RDPS_WindU_IsbL-0001_RLatLon0.09_PT028H.grib2 2026-05-02 02:48 240K
20260502T00Z_MSC_RDPS_WindU_IsbL-0005_RLatLon0.09_PT028H.grib2 2026-05-02 02:48 282K
20260502T00Z_MSC_RDPS_WindU_IsbL-0010_RLatLon0.09_PT028H.grib2 2026-05-02 02:48 293K
20260502T00Z_MSC_RDPS_WindU_IsbL-0020_RLatLon0.09_PT028H.grib2 2026-05-02 02:48 310K
20260502T00Z_MSC_RDPS_WindU_IsbL-0030_RLatLon0.09_PT028H.grib2 2026-05-02 02:48 350K
20260502T00Z_MSC_RDPS_WindU_IsbL-0050_RLatLon0.09_PT028H.grib2 2026-05-02 02:48 378K
20260502T00Z_MSC_RDPS_WindU_IsbL-0100_RLatLon0.09_PT028H.grib2 2026-05-02 02:48 335K
20260502T00Z_MSC_RDPS_WindU_IsbL-0150_RLatLon0.09_PT028H.grib2 2026-05-02 02:48 399K
20260502T00Z_MSC_RDPS_WindU_IsbL-0175_RLatLon0.09_PT028H.grib2 2026-05-02 02:48 419K
20260502T00Z_MSC_RDPS_WindU_IsbL-0200_RLatLon0.09_PT028H.grib2 2026-05-02 02:48 335K
20260502T00Z_MSC_RDPS_WindU_IsbL-0225_RLatLon0.09_PT028H.grib2 2026-05-02 02:48 339K
20260502T00Z_MSC_RDPS_WindU_IsbL-0250_RLatLon0.09_PT028H.grib2 2026-05-02 02:48 342K
20260502T00Z_MSC_RDPS_WindU_IsbL-0275_RLatLon0.09_PT028H.grib2 2026-05-02 02:48 356K
20260502T00Z_MSC_RDPS_WindU_IsbL-0300_RLatLon0.09_PT028H.grib2 2026-05-02 02:48 353K
20260502T00Z_MSC_RDPS_WindU_IsbL-0350_RLatLon0.09_PT028H.grib2 2026-05-02 02:48 362K
20260502T00Z_MSC_RDPS_WindU_IsbL-0400_RLatLon0.09_PT028H.grib2 2026-05-02 02:48 469K
20260502T00Z_MSC_RDPS_WindU_IsbL-0450_RLatLon0.09_PT028H.grib2 2026-05-02 02:48 470K
20260502T00Z_MSC_RDPS_WindU_IsbL-0500_RLatLon0.09_PT028H.grib2 2026-05-02 02:48 471K
20260502T00Z_MSC_RDPS_WindU_IsbL-0550_RLatLon0.09_PT028H.grib2 2026-05-02 02:48 474K
20260502T00Z_MSC_RDPS_WindU_IsbL-0600_RLatLon0.09_PT028H.grib2 2026-05-02 02:48 482K
20260502T00Z_MSC_RDPS_WindU_IsbL-0650_RLatLon0.09_PT028H.grib2 2026-05-02 02:48 483K
20260502T00Z_MSC_RDPS_WindU_IsbL-0700_RLatLon0.09_PT028H.grib2 2026-05-02 02:48 505K
20260502T00Z_MSC_RDPS_WindU_IsbL-0750_RLatLon0.09_PT028H.grib2 2026-05-02 02:48 531K
20260502T00Z_MSC_RDPS_WindU_IsbL-0800_RLatLon0.09_PT028H.grib2 2026-05-02 02:48 569K
20260502T00Z_MSC_RDPS_WindU_IsbL-0850_RLatLon0.09_PT028H.grib2 2026-05-02 02:48 622K
20260502T00Z_MSC_RDPS_WindU_IsbL-0875_RLatLon0.09_PT028H.grib2 2026-05-02 02:48 642K
20260502T00Z_MSC_RDPS_WindU_IsbL-0900_RLatLon0.09_PT028H.grib2 2026-05-02 02:48 652K
20260502T00Z_MSC_RDPS_WindU_IsbL-0925_RLatLon0.09_PT028H.grib2 2026-05-02 02:48 660K
20260502T00Z_MSC_RDPS_WindU_IsbL-0950_RLatLon0.09_PT028H.grib2 2026-05-02 02:48 656K
20260502T00Z_MSC_RDPS_WindU_IsbL-0970_RLatLon0.09_PT028H.grib2 2026-05-02 02:48 654K
20260502T00Z_MSC_RDPS_WindU_IsbL-0985_RLatLon0.09_PT028H.grib2 2026-05-02 02:48 787K
20260502T00Z_MSC_RDPS_WindU_IsbL-1000_RLatLon0.09_PT028H.grib2 2026-05-02 02:48 780K
20260502T00Z_MSC_RDPS_WindU_IsbL-1015_RLatLon0.09_PT028H.grib2 2026-05-02 02:48 818K
20260502T00Z_MSC_RDPS_WindV_AGL-10m_RLatLon0.09_PT028H.grib2 2026-05-02 02:48 426K
20260502T00Z_MSC_RDPS_WindV_AGL-120m_RLatLon0.09_PT028H.grib2 2026-05-02 02:48 414K
20260502T00Z_MSC_RDPS_WindV_AGL-40m_RLatLon0.09_PT028H.grib2 2026-05-02 02:48 532K
20260502T00Z_MSC_RDPS_WindV_AGL-80m_RLatLon0.09_PT028H.grib2 2026-05-02 02:48 415K
20260502T00Z_MSC_RDPS_WindV_IsbL-0001_RLatLon0.09_PT028H.grib2 2026-05-02 02:48 244K
20260502T00Z_MSC_RDPS_WindV_IsbL-0005_RLatLon0.09_PT028H.grib2 2026-05-02 02:48 286K
20260502T00Z_MSC_RDPS_WindV_IsbL-0010_RLatLon0.09_PT028H.grib2 2026-05-02 02:48 386K
20260502T00Z_MSC_RDPS_WindV_IsbL-0020_RLatLon0.09_PT028H.grib2 2026-05-02 02:48 313K
20260502T00Z_MSC_RDPS_WindV_IsbL-0030_RLatLon0.09_PT028H.grib2 2026-05-02 02:48 314K
20260502T00Z_MSC_RDPS_WindV_IsbL-0050_RLatLon0.09_PT028H.grib2 2026-05-02 02:48 342K
20260502T00Z_MSC_RDPS_WindV_IsbL-0100_RLatLon0.09_PT028H.grib2 2026-05-02 02:48 430K
20260502T00Z_MSC_RDPS_WindV_IsbL-0150_RLatLon0.09_PT028H.grib2 2026-05-02 02:48 398K
20260502T00Z_MSC_RDPS_WindV_IsbL-0175_RLatLon0.09_PT028H.grib2 2026-05-02 02:48 418K
20260502T00Z_MSC_RDPS_WindV_IsbL-0200_RLatLon0.09_PT028H.grib2 2026-05-02 02:48 334K
20260502T00Z_MSC_RDPS_WindV_IsbL-0225_RLatLon0.09_PT028H.grib2 2026-05-02 02:48 338K
20260502T00Z_MSC_RDPS_WindV_IsbL-0250_RLatLon0.09_PT028H.grib2 2026-05-02 02:48 341K
20260502T00Z_MSC_RDPS_WindV_IsbL-0275_RLatLon0.09_PT028H.grib2 2026-05-02 02:48 355K
20260502T00Z_MSC_RDPS_WindV_IsbL-0300_RLatLon0.09_PT028H.grib2 2026-05-02 02:48 352K
20260502T00Z_MSC_RDPS_WindV_IsbL-0350_RLatLon0.09_PT028H.grib2 2026-05-02 02:48 361K
20260502T00Z_MSC_RDPS_WindV_IsbL-0400_RLatLon0.09_PT028H.grib2 2026-05-02 02:48 364K
20260502T00Z_MSC_RDPS_WindV_IsbL-0450_RLatLon0.09_PT028H.grib2 2026-05-02 02:48 468K
20260502T00Z_MSC_RDPS_WindV_IsbL-0500_RLatLon0.09_PT028H.grib2 2026-05-02 02:48 468K
20260502T00Z_MSC_RDPS_WindV_IsbL-0550_RLatLon0.09_PT028H.grib2 2026-05-02 02:48 471K
20260502T00Z_MSC_RDPS_WindV_IsbL-0600_RLatLon0.09_PT028H.grib2 2026-05-02 02:48 479K
20260502T00Z_MSC_RDPS_WindV_IsbL-0650_RLatLon0.09_PT028H.grib2 2026-05-02 02:48 495K
20260502T00Z_MSC_RDPS_WindV_IsbL-0700_RLatLon0.09_PT028H.grib2 2026-05-02 02:48 518K
20260502T00Z_MSC_RDPS_WindV_IsbL-0750_RLatLon0.09_PT028H.grib2 2026-05-02 02:48 542K
20260502T00Z_MSC_RDPS_WindV_IsbL-0800_RLatLon0.09_PT028H.grib2 2026-05-02 02:48 579K
20260502T00Z_MSC_RDPS_WindV_IsbL-0850_RLatLon0.09_PT028H.grib2 2026-05-02 02:48 628K
20260502T00Z_MSC_RDPS_WindV_IsbL-0875_RLatLon0.09_PT028H.grib2 2026-05-02 02:48 638K
20260502T00Z_MSC_RDPS_WindV_IsbL-0900_RLatLon0.09_PT028H.grib2 2026-05-02 02:48 649K
20260502T00Z_MSC_RDPS_WindV_IsbL-0925_RLatLon0.09_PT028H.grib2 2026-05-02 02:48 657K
20260502T00Z_MSC_RDPS_WindV_IsbL-0950_RLatLon0.09_PT028H.grib2 2026-05-02 02:48 654K
20260502T00Z_MSC_RDPS_WindV_IsbL-0970_RLatLon0.09_PT028H.grib2 2026-05-02 02:48 652K
20260502T00Z_MSC_RDPS_WindV_IsbL-0985_RLatLon0.09_PT028H.grib2 2026-05-02 02:48 785K
20260502T00Z_MSC_RDPS_WindV_IsbL-1000_RLatLon0.09_PT028H.grib2 2026-05-02 02:48 778K
20260502T00Z_MSC_RDPS_WindV_IsbL-1015_RLatLon0.09_PT028H.grib2 2026-05-02 02:48 770K